TimePST,TemperatureF,Dew PointF,Humidity,Sea Level PressureIn,VisibilityMPH,Wind Direction,Wind SpeedMPH,Gust SpeedMPH,PrecipitationIn,Events,Conditions,WindDirDegrees,DateUTC
12:53 AM,62.1,25.0,24,30.06,10.0,NNW,4.6,-,N/A,,Clear,340,2013-11-05 08:53:00
1:53 AM,57.9,26.1,30,30.06,10.0,Calm,Calm,-,N/A,,Clear,0,2013-11-05 09:53:00
2:53 AM,55.0,26.1,33,30.07,10.0,Calm,Calm,-,N/A,,Clear,0,2013-11-05 10:53:00
3:53 AM,57.9,25.0,28,30.10,10.0,ESE,5.8,-,N/A,,Clear,110,2013-11-05 11:53:00
4:53 AM,60.1,25.0,26,30.12,10.0,NE,5.8,-,N/A,,Clear,40,2013-11-05 12:53:00
5:53 AM,57.9,27.0,31,30.13,10.0,North,4.6,-,N/A,,Clear,350,2013-11-05 13:53:00
6:53 AM,60.1,27.0,28,30.15,10.0,Variable,4.6,-,N/A,,Clear,0,2013-11-05 14:53:00
7:53 AM,59.0,28.0,31,30.17,10.0,SE,3.5,-,N/A,,Clear,140,2013-11-05 15:53:00
8:53 AM,64.9,28.0,25,30.18,10.0,Variable,6.9,-,N/A,,Clear,0,2013-11-05 16:53:00
9:53 AM,66.9,27.0,22,30.18,10.0,NE,12.7,17.3,N/A,,Clear,50,2013-11-05 17:53:00
10:53 AM,68.0,28.0,22,30.18,10.0,East,12.7,-,N/A,,Clear,80,2013-11-05 18:53:00
11:53 AM,70.0,28.0,21,30.16,10.0,ENE,11.5,-,N/A,,Clear,70,2013-11-05 19:53:00
12:53 PM,72.0,30.0,21,30.14,10.0,ENE,12.7,21.9,N/A,,Clear,70,2013-11-05 20:53:00
1:53 PM,72.0,28.9,20,30.13,10.0,ENE,11.5,-,N/A,,Clear,60,2013-11-05 21:53:00
2:53 PM,72.0,28.9,20,30.12,10.0,East,10.4,-,N/A,,Clear,80,2013-11-05 22:53:00
3:53 PM,71.1,30.0,22,30.13,10.0,East,5.8,-,N/A,,Clear,90,2013-11-05 23:53:00
4:53 PM,66.9,30.0,25,30.13,10.0,East,4.6,-,N/A,,Clear,80,2013-11-06 00:53:00
5:53 PM,66.0,30.0,26,30.15,10.0,NE,4.6,-,N/A,,Clear,50,2013-11-06 01:53:00
6:53 PM,59.0,30.0,33,30.17,10.0,ESE,4.6,-,N/A,,Clear,110,2013-11-06 02:53:00
7:53 PM,59.0,30.0,33,30.18,10.0,Calm,Calm,-,N/A,,Clear,0,2013-11-06 03:53:00
8:53 PM,55.9,37.0,49,30.19,10.0,Calm,Calm,-,N/A,,Clear,0,2013-11-06 04:53:00
9:53 PM,54.0,34.0,47,30.21,10.0,Calm,Calm,-,N/A,,Clear,0,2013-11-06 05:53:00
10:53 PM,52.0,34.0,50,30.23,10.0,Calm,Calm,-,N/A,,Clear,0,2013-11-06 06:53:00
11:53 PM,50.0,28.9,44,30.22,10.0,Calm,Calm,-,N/A,,Clear,0,2013-11-06 07:53:00